AirNav   Everest Fuels
 
 1295 users online  

KPVG Hampton Roads Executive Airport
Norfolk, Virginia, USA

GOING TO NORFOLK?


FAA INFORMATION EFFECTIVE 28 FEBRUARY 2019

Location

FAA Identifier: PVG
Lat/Long: 36-46-50.7533N / 076-27-04.6093W
36-46.845888N / 076-27.076822W
36.7807648 / -76.4512804
(estimated)
Elevation: 28 ft. / 8.5 m (surveyed)
Variation: 10W (2000)
From city: 7 miles SW of NORFOLK, VA
Time zone: UTC -5 (UTC -4 during Daylight Saving Time)
Zip code: 23321

Airport Operations

Airport use: Open to the public
Control tower: no
ARTCC: WASHINGTON CENTER
FSS: LEESBURG FLIGHT SERVICE STATION
NOTAMs facility: DCA (NOTAM-D service available)
Attendance: 0630 - 2130
Pattern altitude: TPA 677 FT AGL FOR HELICOPTERS.
Wind indicator: lighted
Segmented circle: no
Lights: ACTVT MIRL RYS 02/20; REIL 10/28; PAPI RY 10/28; HIRL RY 10/28 - CTAF.
Beacon: white-green (lighted land airport)
Operates sunset to sunrise.

Airport Communications

CTAF/UNICOM: 122.725
WX AWOS-3PT: 118.375 (757-465-2175)
NORFOLK APPROACH: 118.9 125.2
NORFOLK DEPARTURE: 118.9 125.2
WX AWOS-3 at SFQ (9 nm SW): 119.375 (757-934-3942)
WX AWOS-3 at CPK (9 nm SE): 123.675 (757-204-4290)
WX ASOS at ORF (14 nm NE): PHONE 757-460-9348

Nearby radio navigation aids

VOR radial/distance  VOR name  Freq  Var
ORFr248/13.8NORFOLK VORTAC116.9007W
FKNr091/27.3FRANKLIN VORTAC110.6009W
CVIr049/31.8COFIELD VORTAC114.6009W
ECGr344/34.1ELIZABETH CITY VOR/DME112.5007W

 
NDB name  Hdg/Dist  Freq  Var  ID
INGLE259/10.332909WOR --- .-.
WAKEFIELD126/29.027411WAKQ .- -.- --.-
WOODVILLE357/31.925410WLLW .-.. .-.. .--

Airport Services

Fuel available: 100LL JET-A+
Parking: hangars and tiedowns
Airframe service: MAJOR
Powerplant service: MAJOR
Bottled oxygen: NONE
Bulk oxygen: NONE

Runway Information

Runway 10/28

Dimensions: 5350 x 100 ft. / 1631 x 30 m
Surface: asphalt/grooved, in good condition
Weight bearing capacity: 
Double wheel: 75.0
Runway edge lights: high intensity
RUNWAY 10  RUNWAY 28
Latitude: 36-46.850430N36-46.813307N
Longitude: 076-27.728995W076-26.633872W
Elevation: 27.9 ft.23.1 ft.
Traffic pattern: right
FIXED WING ACFT.
left
Runway heading: 102 magnetic, 092 true282 magnetic, 272 true
Markings: precision, in good conditionnonprecision, in good condition
Visual slope indicator: 4-light PAPI on left (3.00 degrees glide path)4-light PAPI on left (3.00 degrees glide path)
Runway end identifier lights: yesyes
Touchdown point: yes, no lightsyes, no lights
Obstructions: none97 ft. brush, 2469 ft. from runway, 121 ft. right of centerline, 23:1 slope to clear
BRUSH LCTD APRXLY 240 FT FM CNTRLN.

Runway 2/20

Dimensions: 3525 x 70 ft. / 1074 x 21 m
Surface: asphalt, in poor condition
RWY HAS NMRS CRACKS. TWYS SUPPORTING RWY HAVE NMRS CRACKS AND FOD POTENTIAL.
Weight bearing capacity: 
Single wheel: 12.5
Runway edge lights: medium intensity
RUNWAY 2  RUNWAY 20
Latitude: 36-46.580053N36-47.154263N
Longitude: 076-26.972608W076-26.863460W
Elevation: 21.2 ft.19.6 ft.
Traffic pattern: leftright
FIXED WING ACFT.
Runway heading: 019 magnetic, 009 true199 magnetic, 189 true
Displaced threshold: 898 ft.928 ft.
Markings: nonprecision, in fair conditionnonprecision, in fair condition
Touchdown point: yes, no lightsyes, no lights
Obstructions: 10 ft. road, 244 ft. from runway, 125 ft. right of centerline, 4:1 slope to clear
APCH RATIO 94:1 TO DSPLCD THR (ROAD); APCH RATIO 22:1 TO DSPLCD THR FM 70' TREE 883' FM RWY END, 189' LEFT.
75 ft. trees, 929 ft. from runway, 174 ft. left of centerline, 9:1 slope to clear
APCH RATIO 22:1 TO DSPLCD THR CTLG OBST; APCH RATIO 21:1 TO DSPLCD THR FM 104 FT TREE 1505 FT FM RWY END, 108 FT RIGHT.

Airport Ownership and Management from official FAA records

Ownership: Privately-owned
Owner: VIRGINIA AVIATION ASSOCIATES, L.L.C
5172 W. MILITARY HWY, SUITE A
CHESAPEAKE, VA 23321
Phone 757-465-0260
Manager: STEVE FOX
5172 W. MILITARY HWY
CHESAPEAKE, VA 23321
Phone 757-465-0260
STEVEN I. FOX AUTH PSNAL TO MAKE CHGS 757-465-0260.

Airport Operational Statistics

Aircraft based on the field: 143
Single engine airplanes: 105
Multi engine airplanes: 19
Jet airplanes: 6
Helicopters: 12
Ultralights: 1
    
Aircraft operations: avg 191/day *
72% transient general aviation
25% local general aviation
2% air taxi
<1% military
* for 12-month period ending 31 October 2018

Additional Remarks

MULTIPLE 1000 FT AGL TWRS 1.5 NM NW OF FLD.
DEER ON & INVOF ARPT.
EXTENSIVE HELICOPTER TRAINING.
RY 10/28 PREFERRED USE RY. BE ALERT FOR MULTIPLE TALL TWRS NW OF ARPT.
FOR CD CTC ORF APCH AT 757-464-0757.

Instrument Procedures

NOTE: All procedures below are presented as PDF files. If you need a reader for these files, you should download the free Adobe Reader.

NOT FOR NAVIGATION. Please procure official charts for flight.
FAA instrument procedures published for use from 28 February 2019 at 0901Z to 28 March 2019 at 0900Z.

 
STARs - Standard Terminal Arrivals
DRONE TWO   2 pages: [1] [2] (251KB)
TERKS TWO   download (163KB)
 
IAPs - Instrument Approach Procedures
RNAV (GPS) RWY 10   download (231KB)
NOTE: Special Take-Off Minimums/Departure Procedures apply   download

Other nearby airports with instrument procedures:

KSFQ - Suffolk Executive Airport (9 nm SW)
KCPK - Chesapeake Regional Airport (9 nm SE)
KNGU - Norfolk Naval Station (Chambers Field) (12 nm NE)
KORF - Norfolk International Airport (14 nm NE)
KLFI - Langley Air Force Base (19 nm N)
 
Loc | Ops | Rwys | IFR | FBO | Links
Com | Nav | Svcs | Stats | Notes
Area around KPVG (Hampton Roads Executive Airport)
 
Road maps at: MapQuest Bing Google
 
Aerial photo
WARNING: Photo may not be current or correct
Aerial photo of KPVG (Hampton Roads Executive Airport)
Photo taken 07-Mar-2016
looking east.

Do you have a better or more recent aerial photo of Hampton Roads Executive Airport that you would like to share? If so, please send us your photo.

 
Sectional chart

 
Airport diagram
CAUTION: Diagram may not be current
Diagram of KPVG (Hampton Roads Executive Airport)
 
Airport distance calculator
Flying to Hampton Roads Executive Airport? Find the distance to fly.

From to KPVG

Sunrise and sunset
Times for 21-Mar-2019
 Local
(UTC-4)
 Zulu
(UTC)
Morning civil twilight06:4310:43
Sunrise07:0911:09
Sunset19:1723:17
Evening civil twilight19:4323:43

Current date and time
Zulu (UTC)  21-Mar-2019 20:58:20
Local (UTC-4)  21-Mar-2019 16:58:20
 
METAR
KPVG 212053Z AUTO 25013G17KT 3SM -RA BR BKN009 OVC012 11/10 A2959 RMK AO2 RAE1958B24 CIG 006V010 P0002
KSFQ 
9nm SW 
212035Z AUTO 25013G20KT 2 1/2SM -DZ OVC007 11/10 A2961 RMK AO2 LTG DSNT E P0001 T01130104
KCPK 
9nm SE 
212035Z AUTO 20011KT 5SM BR BKN015 OVC024 14/11 A2958 RMK AO2 LTG DSNT E T01350113
KNGU 
12nm NE 
212045Z 22010G19KT 10SM FEW023 BKN032 OVC042 16/11 A2957 RMK AO2 T01560106
KORF 
14nm NE 
212051Z 21015KT 10SM SCT023 BKN029 OVC050 16/11 A2955 RMK AO2 RAB32E41 SLP005 P0000 60000 T01560111 56043
KNFE 
16nm E 
212017Z AUTO 20009G20KT 10SM SCT019 BKN024 OVC031 17/10 A2958 RMK AO2 T01670100
KLFI 
18nm N 
211256Z 11017G23KT 3SM -RA FEW024 SCT050 BKN060 BKN085 12/12 A2988 RMK AO2A RAE13DZB13E14RAB21 SLP125 P0000 T01180118 $
TAF
KNGU 
12nm NE 
TAF 2115/2215 15013G22KT 9999 VCSH SCT020 BKN080 WS020/13050KT 620804 QNH2961INS TEMPO 2117/2121 19011G19KT 6000 -RA BR BKN007 OVC014 FM212100 24012G20KT 9999 SCT014 BKN020 OVC060 610804 QNH2962INS FM220300 28013G22KT 9999 SCT028 BKN080 BKN180 620609 QNH2961INS FM221200 29014G24KT 9999 FEW030 SCT080 SCT220 600000 QNH2968INS T16/2118Z T07/2212Z FN20000
KORF 
14nm NE 
211744Z 2118/2218 19015G25KT P6SM -SHRA BKN060 FM212200 23013G23KT P6SM VCSH SCT008 BKN011 FM220200 25011G20KT P6SM BKN020 FM220900 27013G21KT P6SM SCT200
KLFI 
18nm N 
211310Z 2113/2215 12015G25KT 4800 -SHRA FEW025 SCT040 BKN060 WS020/14040KT QNH2985INS BECMG 2113/2114 12015G25KT 6000 -SHRA OVC015 WS020/14040KT QNH2981INS BECMG 2117/2118 14015G30KT 6000 -SHRA BKN010 OVC020 530005 QNH2971INS BECMG 2123/2124 25015G25KT 9999 NSW SCT005 BKN020 BKN080 QNH2962INS BECMG 2211/2212 28015G30KT 9999 SCT030 SCT080 530005 QNH2975INS TX14/2119Z TN07/2209Z
NOTAMs
Click for the latest NOTAMs
NOTAMs are issued by the DoD/FAA and will open in a separate window not controlled by AirNav.

 

 
 

FBO, Fuel Providers, and Aircraft Ground Support

  
 Business Name 
 
 Contact 
 
 Services / Description 
 
Fuel Prices
 
Comments
  
Virginia Aviation Associates UNICOM 122.725
757-488-3166
[web site]
[email]
Only 11 miles from downtown Norfolk, we provide both 100LL and Jet A fuel and guarantee exceptional service with quick turnarounds while you wait in our comfortable lobby area or pilot lounge with access to computers, fax/copy machines, courtesy cars, an on-site restaurant, and on-site rental cars starting at $23.50/day.
More info and photos of Virginia Aviation Associates
Shell
100LL Jet A
FS $5.39 $4.79 
SS $4.79 $4.19 
GUARANTEED
 
   15 read write
FS=Full service
SS=Self service
Update Fuel Prices
 

Aviation Businesses, Services, and Facilities

  
 Business Name 
 
 Contact 
 
 Services / Description 
 
Distance
 
Comments
  
Aerodyne Corporation 757-488-2898
[web site]
[email]
Oxygen service, Aircraft maintenance, Aircraft parts
 
FAA-Approved Repair Station  
 
More info about Aerodyne Corporation
on airport  
   write
Bay Avionics 757-488-7700
no information available

If you are affiliated with Bay Avionics and would like to show here your services, contact info, web link, logo, and more, click here
on airport  
   write
 

Would you like to see your business listed on this page?

 If your business provides an interesting product or service to pilots, flight crews, aircraft, or users of the Hampton Roads Executive Airport, you should consider listing it here.  To start the listing process, click on the button below
 
Add a business
 

Other Pages about Hampton Roads Executive Airport

www.flypvg.com
 
Update a link
 
Copyright © AirNav, LLC. All rights reserved. Privacy Policy  Contact